Wetterdaten: Mittwoch, 03.09.2014
Datum Zeit Temperatur Luftfeuchte Luftdruck Regen Wind Richtung Richtung Taupunkt Windchill Windben
03.09.2014 00:03 10,1 C 95 % 1022,6 hPa 0,0 l/m 0,0 km/h (0 Bft) N 360 9,3 C 0,0 C 0,0 km/h (0 Bft)
03.09.2014 00:08 10,0 C 95 % 1022,5 hPa 0,0 l/m 0,0 km/h (0 Bft) N 360 9,2 C 0,0 C 0,0 km/h (0 Bft)
03.09.2014 00:13 10,0 C 95 % 1022,5 hPa 0,0 l/m 0,0 km/h (0 Bft) N 360 9,2 C 0,0 C 0,0 km/h (0 Bft)
03.09.2014 00:18 10,0 C 95 % 1022,5 hPa 0,0 l/m 0,0 km/h (0 Bft) N 360 9,2 C 0,0 C 0,0 km/h (0 Bft)
03.09.2014 00:23 10,0 C 95 % 1022,5 hPa 0,0 l/m 0,0 km/h (0 Bft) N 360 9,2 C 0,0 C 0,0 km/h (0 Bft)
03.09.2014 00:28 10,0 C 95 % 1022,2 hPa 0,0 l/m 0,0 km/h (0 Bft) N 360 9,2 C 0,0 C 0,0 km/h (0 Bft)
03.09.2014 00:33 10,0 C 95 % 1022,2 hPa 0,0 l/m 0,0 km/h (0 Bft) N 360 9,2 C 0,0 C 0,0 km/h (0 Bft)
03.09.2014 00:38 10,0 C 95 % 1022,2 hPa 0,0 l/m 0,0 km/h (0 Bft) N 360 9,2 C 0,0 C 0,0 km/h (0 Bft)
03.09.2014 00:43 10,0 C 95 % 1022,2 hPa 0,0 l/m 0,0 km/h (0 Bft) N 360 9,2 C 0,0 C 0,0 km/h (0 Bft)
03.09.2014 00:48 10,0 C 95 % 1022,2 hPa 0,0 l/m 0,0 km/h (0 Bft) N 360 9,2 C 0,0 C 0,0 km/h (0 Bft)
03.09.2014 00:53 9,9 C 95 % 1022,2 hPa 0,0 l/m 0,0 km/h (0 Bft) N 360 9,1 C 0,0 C 0,0 km/h (0 Bft)
03.09.2014 00:58 9,9 C 95 % 1022,2 hPa 0,0 l/m 0,0 km/h (0 Bft) N 360 9,1 C 0,0 C 0,0 km/h (0 Bft)
03.09.2014 01:03 9,9 C 95 % 1022,2 hPa 0,0 l/m 0,0 km/h (0 Bft) N 360 9,1 C 0,0 C 0,0 km/h (0 Bft)
03.09.2014 01:08 9,8 C 95 % 1022,0 hPa 0,0 l/m 0,0 km/h (0 Bft) N 360 9,0 C 0,0 C 0,0 km/h (0 Bft)
03.09.2014 01:13 9,8 C 95 % 1022,0 hPa 0,0 l/m 0,0 km/h (0 Bft) N 360 9,0 C 0,0 C 0,0 km/h (0 Bft)
03.09.2014 01:18 9,7 C 95 % 1022,0 hPa 0,0 l/m 0,0 km/h (0 Bft) N 360 8,9 C 0,0 C 0,0 km/h (0 Bft)
03.09.2014 01:23 9,6 C 95 % 1022,0 hPa 0,0 l/m 0,0 km/h (0 Bft) N 360 8,8 C 0,0 C 0,0 km/h (0 Bft)
03.09.2014 01:28 9,6 C 95 % 1022,1 hPa 0,0 l/m 0,0 km/h (0 Bft) N 360 8,8 C 0,0 C 0,0 km/h (0 Bft)
03.09.2014 01:33 9,5 C 95 % 1022,1 hPa 0,0 l/m 0,0 km/h (0 Bft) N 360 8,7 C 0,0 C 0,0 km/h (0 Bft)
03.09.2014 01:38 9,5 C 95 % 1022,1 hPa 0,0 l/m 0,0 km/h (0 Bft) N 360 8,7 C 0,0 C 0,0 km/h (0 Bft)
03.09.2014 01:43 9,4 C 95 % 1022,1 hPa 0,0 l/m 0,0 km/h (0 Bft) N 360 8,6 C 0,0 C 0,0 km/h (0 Bft)
03.09.2014 01:48 9,4 C 95 % 1021,9 hPa 0,0 l/m 0,0 km/h (0 Bft) N 360 8,6 C 0,0 C 0,0 km/h (0 Bft)
03.09.2014 01:53 9,4 C 95 % 1021,9 hPa 0,0 l/m 0,0 km/h (0 Bft) N 360 8,6 C 0,0 C 0,0 km/h (0 Bft)
03.09.2014 01:58 9,3 C 95 % 1021,9 hPa 0,0 l/m 0,0 km/h (0 Bft) N 360 8,5 C 0,0 C 0,0 km/h (0 Bft)
03.09.2014 02:03 9,3 C 95 % 1021,9 hPa 0,0 l/m 0,0 km/h (0 Bft) N 360 8,5 C 0,0 C 0,0 km/h (0 Bft)
03.09.2014 02:08 9,4 C 95 % 1021,5 hPa 0,0 l/m 0,0 km/h (0 Bft) N 360 8,6 C 0,0 C 0,0 km/h (0 Bft)
03.09.2014 02:13 9,4 C 95 % 1021,5 hPa 0,0 l/m 0,0 km/h (0 Bft) N 360 8,6 C 0,0 C 0,0 km/h (0 Bft)
03.09.2014 02:18 9,4 C 95 % 1021,5 hPa 0,0 l/m 0,0 km/h (0 Bft) N 360 8,6 C 0,0 C 0,0 km/h (0 Bft)
03.09.2014 02:23 9,4 C 95 % 1021,5 hPa 0,0 l/m 0,0 km/h (0 Bft) N 360 8,6 C 0,0 C 0,0 km/h (0 Bft)
03.09.2014 02:28 9,4 C 95 % 1021,7 hPa 0,0 l/m 0,0 km/h (0 Bft) N 360 8,6 C 0,0 C 0,0 km/h (0 Bft)
03.09.2014 02:33 9,5 C 95 % 1021,7 hPa 0,0 l/m 0,0 km/h (0 Bft) N 360 8,7 C 0,0 C 0,0 km/h (0 Bft)
03.09.2014 02:38 9,5 C 95 % 1021,7 hPa 0,0 l/m 0,0 km/h (0 Bft) N 360 8,7 C 0,0 C 0,0 km/h (0 Bft)
03.09.2014 02:43 9,5 C 95 % 1021,7 hPa 0,0 l/m 0,0 km/h (0 Bft) N 360 8,7 C 0,0 C 0,0 km/h (0 Bft)
03.09.2014 02:48 9,5 C 95 % 1021,4 hPa 0,0 l/m 0,0 km/h (0 Bft) N 360 8,7 C 0,0 C 0,0 km/h (0 Bft)
03.09.2014 02:53 9,4 C 95 % 1021,4 hPa 0,0 l/m 0,0 km/h (0 Bft) N 360 8,6 C 0,0 C 0,0 km/h (0 Bft)
03.09.2014 02:58 9,5 C 95 % 1021,4 hPa 0,0 l/m 0,0 km/h (0 Bft) N 360 8,7 C 0,0 C 0,0 km/h (0 Bft)
03.09.2014 03:03 9,5 C 95 % 1021,4 hPa 0,0 l/m 0,0 km/h (0 Bft) N 360 8,7 C 0,0 C 0,0 km/h (0 Bft)
03.09.2014 03:08 9,4 C 95 % 1021,4 hPa 0,0 l/m 0,0 km/h (0 Bft) N 360 8,6 C 0,0 C 0,0 km/h (0 Bft)
03.09.2014 03:13 9,5 C 95 % 1021,4 hPa 0,0 l/m 0,0 km/h (0 Bft) N 360 8,7 C 0,0 C 0,0 km/h (0 Bft)
03.09.2014 03:18 9,5 C 95 % 1021,4 hPa 0,0 l/m 0,0 km/h (0 Bft) N 360 8,7 C 0,0 C 0,0 km/h (0 Bft)
03.09.2014 03:23 9,5 C 95 % 1021,4 hPa 0,0 l/m 0,0 km/h (0 Bft) N 360 8,7 C 0,0 C 0,0 km/h (0 Bft)
03.09.2014 03:28 9,5 C 96 % 1021,2 hPa 0,0 l/m 0,0 km/h (0 Bft) N 360 8,9 C 0,0 C 0,0 km/h (0 Bft)
03.09.2014 03:33 9,5 C 96 % 1021,2 hPa 0,0 l/m 0,0 km/h (0 Bft) N 360 8,9 C 0,0 C 0,0 km/h (0 Bft)
03.09.2014 03:38 9,5 C 96 % 1021,2 hPa 0,0 l/m 0,0 km/h (0 Bft) N 360 8,9 C 0,0 C 0,0 km/h (0 Bft)
03.09.2014 03:43 9,5 C 96 % 1021,2 hPa 0,0 l/m 0,0 km/h (0 Bft) N 360 8,9 C 0,0 C 0,0 km/h (0 Bft)
03.09.2014 03:48 9,5 C 96 % 1021,2 hPa 0,0 l/m 0,0 km/h (0 Bft) N 360 8,9 C 0,0 C 0,0 km/h (0 Bft)
03.09.2014 03:53 9,6 C 96 % 1021,2 hPa 0,0 l/m 0,0 km/h (0 Bft) N 360 9,0 C 0,0 C 0,0 km/h (0 Bft)
03.09.2014 03:58 9,6 C 96 % 1021,2 hPa 0,0 l/m 0,0 km/h (0 Bft) N 360 9,0 C 0,0 C 0,0 km/h (0 Bft)
03.09.2014 04:03 9,6 C 96 % 1021,2 hPa 0,0 l/m 0,0 km/h (0 Bft) N 360 9,0 C 0,0 C 0,0 km/h (0 Bft)
03.09.2014 04:08 9,6 C 96 % 1021,0 hPa 0,0 l/m 0,0 km/h (0 Bft) N 360 9,0 C 0,0 C 0,0 km/h (0 Bft)
03.09.2014 04:13 9,5 C 96 % 1021,0 hPa 0,0 l/m 0,0 km/h (0 Bft) N 360 8,9 C 0,0 C 0,0 km/h (0 Bft)
03.09.2014 04:18 9,5 C 96 % 1021,0 hPa 0,0 l/m 0,0 km/h (0 Bft) N 360 8,9 C 0,0 C 0,0 km/h (0 Bft)
03.09.2014 04:23 9,5 C 96 % 1021,0 hPa 0,0 l/m 0,0 km/h (0 Bft) N 360 8,9 C 0,0 C 0,0 km/h (0 Bft)
03.09.2014 04:28 9,5 C 96 % 1020,9 hPa 0,0 l/m 0,0 km/h (0 Bft) N 360 8,9 C 0,0 C 0,0 km/h (0 Bft)
03.09.2014 04:33 9,4 C 96 % 1020,9 hPa 0,0 l/m 0,0 km/h (0 Bft) N 360 8,8 C 0,0 C 0,0 km/h (0 Bft)
03.09.2014 04:38 9,4 C 96 % 1020,9 hPa 0,0 l/m 0,0 km/h (0 Bft) N 360 8,8 C 0,0 C 0,0 km/h (0 Bft)
03.09.2014 04:43 9,4 C 96 % 1020,9 hPa 0,0 l/m 0,0 km/h (0 Bft) N 360 8,8 C 0,0 C 0,0 km/h (0 Bft)
03.09.2014 04:48 9,4 C 96 % 1020,9 hPa 0,0 l/m 0,0 km/h (0 Bft) N 360 8,8 C 0,0 C 0,0 km/h (0 Bft)
03.09.2014 04:53 9,5 C 96 % 1020,9 hPa 0,0 l/m 0,0 km/h (0 Bft) N 360 8,9 C 0,0 C 0,0 km/h (0 Bft)
03.09.2014 04:58 9,5 C 96 % 1020,9 hPa 0,0 l/m 0,0 km/h (0 Bft) N 360 8,9 C 0,0 C 0,0 km/h (0 Bft)
03.09.2014 05:03 9,5 C 96 % 1020,9 hPa 0,0 l/m 0,0 km/h (0 Bft) N 360 8,9 C 0,0 C 0,0 km/h (0 Bft)
03.09.2014 05:08 9,5 C 96 % 1020,8 hPa 0,0 l/m 0,0 km/h (0 Bft) N 360 8,9 C 0,0 C 0,0 km/h (0 Bft)
03.09.2014 05:13 9,5 C 96 % 1020,8 hPa 0,0 l/m 0,0 km/h (0 Bft) N 360 8,9 C 0,0 C 0,0 km/h (0 Bft)
03.09.2014 05:18 9,4 C 96 % 1020,8 hPa 0,0 l/m 0,0 km/h (0 Bft) N 360 8,8 C 0,0 C 0,0 km/h (0 Bft)
03.09.2014 05:23 9,4 C 96 % 1020,8 hPa 0,0 l/m 0,0 km/h (0 Bft) N 360 8,8 C 0,0 C 0,0 km/h (0 Bft)
03.09.2014 05:28 9,4 C 96 % 1020,5 hPa 0,0 l/m 0,0 km/h (0 Bft) N 360 8,8 C 0,0 C 0,0 km/h (0 Bft)
03.09.2014 05:33 9,3 C 96 % 1020,5 hPa 0,0 l/m 0,0 km/h (0 Bft) N 360 8,7 C 0,0 C 0,0 km/h (0 Bft)
03.09.2014 05:38 9,3 C 96 % 1020,5 hPa 0,0 l/m 0,0 km/h (0 Bft) N 360 8,7 C 0,0 C 0,0 km/h (0 Bft)
03.09.2014 05:43 9,3 C 96 % 1020,5 hPa 0,0 l/m 0,0 km/h (0 Bft) N 360 8,7 C 0,0 C 0,0 km/h (0 Bft)
03.09.2014 05:48 9,2 C 96 % 1020,6 hPa 0,0 l/m 0,0 km/h (0 Bft) N 360 8,6 C 0,0 C 0,0 km/h (0 Bft)
03.09.2014 05:53 9,2 C 96 % 1020,6 hPa 0,0 l/m 0,0 km/h (0 Bft) N 360 8,6 C 0,0 C 0,0 km/h (0 Bft)
03.09.2014 05:58 9,1 C 96 % 1020,6 hPa 0,0 l/m 0,0 km/h (0 Bft) N 360 8,5 C 0,0 C 0,0 km/h (0 Bft)
03.09.2014 06:03 9,2 C 96 % 1020,6 hPa 0,0 l/m 0,0 km/h (0 Bft) N 360 8,6 C 0,0 C 0,0 km/h (0 Bft)
03.09.2014 06:08 9,2 C 96 % 1020,6 hPa 0,0 l/m 0,0 km/h (0 Bft) N 360 8,6 C 0,0 C 0,0 km/h (0 Bft)
03.09.2014 06:13 9,2 C 96 % 1020,6 hPa 0,0 l/m 0,0 km/h (0 Bft) N 360 8,6 C 0,0 C 0,0 km/h (0 Bft)
03.09.2014 06:18 9,2 C 96 % 1020,6 hPa 0,0 l/m 0,0 km/h (0 Bft) N 360 8,6 C 0,0 C 0,0 km/h (0 Bft)
03.09.2014 06:23 9,1 C 96 % 1020,6 hPa 0,0 l/m 0,0 km/h (0 Bft) N 360 8,5 C 0,0 C 0,0 km/h (0 Bft)
03.09.2014 06:28 9,0 C 96 % 1020,6 hPa 0,0 l/m 0,0 km/h (0 Bft) N 360 8,4 C 0,0 C 0,0 km/h (0 Bft)
03.09.2014 06:33 9,0 C 96 % 1020,6 hPa 0,0 l/m 0,0 km/h (0 Bft) N 360 8,4 C 0,0 C 0,0 km/h (0 Bft)
03.09.2014 06:38 9,0 C 96 % 1020,6 hPa 0,0 l/m 0,0 km/h (0 Bft) N 360 8,4 C 0,0 C 0,0 km/h (0 Bft)
03.09.2014 06:43 9,1 C 96 % 1020,6 hPa 0,0 l/m 0,0 km/h (0 Bft) N 360 8,5 C 0,0 C 0,0 km/h (0 Bft)
03.09.2014 06:48 9,1 C 96 % 1020,7 hPa 0,0 l/m 0,0 km/h (0 Bft) N 360 8,5 C 0,0 C 0,0 km/h (0 Bft)
03.09.2014 06:53 9,2 C 96 % 1020,7 hPa 0,0 l/m 0,0 km/h (0 Bft) N 360 8,6 C 0,0 C 0,0 km/h (0 Bft)
03.09.2014 06:58 9,2 C 96 % 1020,7 hPa 0,0 l/m 0,0 km/h (0 Bft) N 360 8,6 C 0,0 C 0,0 km/h (0 Bft)
03.09.2014 07:03 9,3 C 96 % 1020,7 hPa 0,0 l/m 0,0 km/h (0 Bft) N 360 8,7 C 0,0 C 0,0 km/h (0 Bft)
03.09.2014 07:08 9,3 C 96 % 1020,6 hPa 0,0 l/m 0,0 km/h (0 Bft) N 360 8,7 C 0,0 C 0,0 km/h (0 Bft)
03.09.2014 07:13 9,3 C 96 % 1020,6 hPa 0,0 l/m 0,0 km/h (0 Bft) N 360 8,7 C 0,0 C 0,0 km/h (0 Bft)
03.09.2014 07:18 9,3 C 96 % 1020,6 hPa 0,0 l/m 0,0 km/h (0 Bft) N 360 8,7 C 0,0 C 0,0 km/h (0 Bft)
03.09.2014 07:23 9,4 C 96 % 1020,6 hPa 0,0 l/m 0,0 km/h (0 Bft) N 360 8,8 C 0,0 C 0,0 km/h (0 Bft)
03.09.2014 07:28 9,4 C 96 % 1020,7 hPa 0,0 l/m 0,0 km/h (0 Bft) N 360 8,8 C 0,0 C 0,0 km/h (0 Bft)
03.09.2014 07:33 9,5 C 96 % 1020,7 hPa 0,0 l/m 0,0 km/h (0 Bft) N 360 8,9 C 0,0 C 0,0 km/h (0 Bft)
03.09.2014 07:38 9,6 C 96 % 1020,7 hPa 0,0 l/m 0,0 km/h (0 Bft) N 360 9,0 C 0,0 C 0,0 km/h (0 Bft)
03.09.2014 07:43 9,7 C 96 % 1020,7 hPa 0,0 l/m 0,0 km/h (0 Bft) N 360 9,1 C 0,0 C 0,0 km/h (0 Bft)
03.09.2014 07:48 9,9 C 96 % 1020,5 hPa 0,0 l/m 0,0 km/h (0 Bft) N 360 9,3 C 0,0 C 0,0 km/h (0 Bft)
03.09.2014 07:53 10,0 C 96 % 1020,5 hPa 0,0 l/m 0,0 km/h (0 Bft) N 360 9,4 C 0,0 C 0,0 km/h (0 Bft)
03.09.2014 07:58 10,1 C 96 % 1020,5 hPa 0,0 l/m 0,0 km/h (0 Bft) N 360 9,5 C 0,0 C 0,0 km/h (0 Bft)
03.09.2014 08:03 10,3 C 96 % 1020,5 hPa 0,0 l/m 0,0 km/h (0 Bft) N 360 9,7 C 0,0 C 0,0 km/h (0 Bft)
03.09.2014 08:08 10,4 C 96 % 1020,7 hPa 0,0 l/m 0,0 km/h (0 Bft) N 360 9,8 C 0,0 C 0,0 km/h (0 Bft)
03.09.2014 08:13 10,4 C 96 % 1020,7 hPa 0,0 l/m 0,0 km/h (0 Bft) N 360 9,8 C 0,0 C 0,0 km/h (0 Bft)
03.09.2014 08:18 10,5 C 96 % 1020,7 hPa 0,0 l/m 0,0 km/h (0 Bft) N 360 9,9 C 0,0 C 0,0 km/h (0 Bft)
03.09.2014 08:23 10,6 C 96 % 1020,7 hPa 0,0 l/m 0,0 km/h (0 Bft) N 360 10,0 C 0,0 C 0,0 km/h (0 Bft)
03.09.2014 08:28 10,6 C 96 % 1020,7 hPa 0,0 l/m 0,0 km/h (0 Bft) N 360 10,0 C 0,0 C 0,0 km/h (0 Bft)
03.09.2014 08:33 10,8 C 96 % 1020,7 hPa 0,0 l/m 0,0 km/h (0 Bft) N 360 10,2 C 0,0 C 0,0 km/h (0 Bft)
03.09.2014 08:38 10,8 C 96 % 1020,7 hPa 0,0 l/m 0,0 km/h (0 Bft) N 360 10,2 C 0,0 C 0,0 km/h (0 Bft)
03.09.2014 08:43 10,8 C 96 % 1020,7 hPa 0,0 l/m 0,0 km/h (0 Bft) N 360 10,2 C 0,0 C 0,0 km/h (0 Bft)
03.09.2014 08:48 11,2 C 95 % 1020,8 hPa 0,0 l/m 0,0 km/h (0 Bft) N 360 10,4 C 0,0 C 0,0 km/h (0 Bft)
03.09.2014 08:53 11,2 C 95 % 1020,8 hPa 0,0 l/m 0,0 km/h (0 Bft) N 360 10,4 C 0,0 C 0,0 km/h (0 Bft)
03.09.2014 08:58 11,5 C 95 % 1020,8 hPa 0,0 l/m 0,0 km/h (0 Bft) N 360 10,7 C 0,0 C 0,0 km/h (0 Bft)
03.09.2014 09:03 11,8 C 95 % 1020,8 hPa 0,0 l/m 0,0 km/h (0 Bft) N 360 11,0 C 0,0 C 0,0 km/h (0 Bft)
03.09.2014 09:08 12,0 C 95 % 1020,6 hPa 0,0 l/m 0,0 km/h (0 Bft) N 360 11,2 C 0,0 C 0,0 km/h (0 Bft)
03.09.2014 09:13 11,8 C 95 % 1020,6 hPa 0,0 l/m 0,0 km/h (0 Bft) N 360 11,0 C 0,0 C 0,0 km/h (0 Bft)
03.09.2014 09:18 11,8 C 94 % 1020,6 hPa 0,0 l/m 0,0 km/h (0 Bft) N 360 10,9 C 0,0 C 0,0 km/h (0 Bft)
03.09.2014 09:23 12,2 C 93 % 1020,6 hPa 0,0 l/m 0,0 km/h (0 Bft) N 360 11,1 C 0,0 C 0,0 km/h (0 Bft)
03.09.2014 09:28 12,8 C 93 % 1020,9 hPa 0,0 l/m 0,0 km/h (0 Bft) N 360 11,7 C 0,0 C 0,0 km/h (0 Bft)
03.09.2014 09:33 12,1 C 91 % 1020,9 hPa 0,0 l/m 0,0 km/h (0 Bft) N 360 10,7 C 0,0 C 0,0 km/h (0 Bft)
03.09.2014 09:38 12,0 C 89 % 1020,9 hPa 0,0 l/m 0,0 km/h (0 Bft) N 360 10,2 C 0,0 C 0,0 km/h (0 Bft)
03.09.2014 09:43 11,9 C 89 % 1020,9 hPa 0,0 l/m 0,0 km/h (0 Bft) N 360 10,1 C 0,0 C 0,0 km/h (0 Bft)
03.09.2014 09:48 11,9 C 88 % 1020,9 hPa 0,0 l/m 0,0 km/h (0 Bft) N 360 10,0 C 0,0 C 0,0 km/h (0 Bft)
03.09.2014 09:53 11,9 C 88 % 1020,9 hPa 0,0 l/m 0,0 km/h (0 Bft) N 360 10,0 C 0,0 C 0,0 km/h (0 Bft)
03.09.2014 09:58 11,7 C 89 % 1020,9 hPa 0,0 l/m 0,0 km/h (0 Bft) N 360 9,9 C 0,0 C 0,0 km/h (0 Bft)
03.09.2014 10:03 11,6 C 88 % 1020,9 hPa 0,0 l/m 0,0 km/h (0 Bft) N 360 9,7 C 0,0 C 0,0 km/h (0 Bft)
03.09.2014 10:08 11,7 C 89 % 1020,9 hPa 0,0 l/m 0,0 km/h (0 Bft) N 360 9,9 C 0,0 C 0,0 km/h (0 Bft)
03.09.2014 10:13 11,7 C 88 % 1020,9 hPa 0,0 l/m 0,0 km/h (0 Bft) N 360 9,8 C 0,0 C 0,0 km/h (0 Bft)
03.09.2014 10:18 11,8 C 89 % 1020,9 hPa 0,0 l/m 0,0 km/h (0 Bft) N 360 10,0 C 0,0 C 0,0 km/h (0 Bft)
03.09.2014 10:23 11,7 C 88 % 1020,9 hPa 0,0 l/m 0,0 km/h (0 Bft) N 360 9,8 C 0,0 C 0,0 km/h (0 Bft)
03.09.2014 10:28 11,7 C 88 % 1020,9 hPa 0,0 l/m 0,0 km/h (0 Bft) N 360 9,8 C 0,0 C 0,0 km/h (0 Bft)
03.09.2014 10:33 11,7 C 89 % 1020,9 hPa 0,0 l/m 0,0 km/h (0 Bft) N 360 9,9 C 0,0 C 0,0 km/h (0 Bft)
03.09.2014 10:38 11,9 C 89 % 1020,9 hPa 0,0 l/m 0,0 km/h (0 Bft) N 360 10,1 C 0,0 C 0,0 km/h (0 Bft)
03.09.2014 10:43 11,8 C 89 % 1020,9 hPa 0,0 l/m 0,0 km/h (0 Bft) N 360 10,0 C 0,0 C 0,0 km/h (0 Bft)
03.09.2014 10:48 12,1 C 88 % 1021,0 hPa 0,0 l/m 0,0 km/h (0 Bft) N 360 10,2 C 0,0 C 0,0 km/h (0 Bft)
03.09.2014 10:53 12,4 C 88 % 1021,0 hPa 0,0 l/m 0,0 km/h (0 Bft) N 360 10,5 C 0,0 C 0,0 km/h (0 Bft)
03.09.2014 10:58 12,4 C 88 % 1021,0 hPa 0,0 l/m 0,0 km/h (0 Bft) N 360 10,5 C 0,0 C 0,0 km/h (0 Bft)
03.09.2014 11:03 12,5 C 87 % 1021,0 hPa 0,0 l/m 0,0 km/h (0 Bft) N 360 10,4 C 0,0 C 0,0 km/h (0 Bft)
03.09.2014 11:08 12,4 C 87 % 1021,2 hPa 0,0 l/m 0,0 km/h (0 Bft) N 360 10,3 C 0,0 C 0,0 km/h (0 Bft)
03.09.2014 11:13 12,2 C 88 % 1021,2 hPa 0,0 l/m 0,0 km/h (0 Bft) N 360 10,3 C 0,0 C 0,0 km/h (0 Bft)
03.09.2014 11:18 12,3 C 88 % 1021,2 hPa 0,0 l/m 0,0 km/h (0 Bft) N 360 10,4 C 0,0 C 0,0 km/h (0 Bft)
03.09.2014 11:23 12,3 C 88 % 1021,2 hPa 0,0 l/m 0,0 km/h (0 Bft) N 360 10,4 C 0,0 C 0,0 km/h (0 Bft)
03.09.2014 11:28 12,4 C 87 % 1021,0 hPa 0,0 l/m 0,0 km/h (0 Bft) N 360 10,3 C 0,0 C 0,0 km/h (0 Bft)
03.09.2014 11:33 12,5 C 87 % 1021,0 hPa 0,0 l/m 0,0 km/h (0 Bft) N 360 10,4 C 0,0 C 0,0 km/h (0 Bft)
03.09.2014 11:38 12,4 C 87 % 1021,0 hPa 0,0 l/m 0,0 km/h (0 Bft) N 360 10,3 C 0,0 C 0,0 km/h (0 Bft)
03.09.2014 11:43 12,8 C 87 % 1021,0 hPa 0,0 l/m 0,0 km/h (0 Bft) N 360 10,7 C 0,0 C 0,0 km/h (0 Bft)
03.09.2014 11:48 12,8 C 86 % 1020,6 hPa 0,0 l/m 0,0 km/h (0 Bft) N 360 10,5 C 0,0 C 0,0 km/h (0 Bft)
03.09.2014 11:53 13,0 C 86 % 1020,6 hPa 0,0 l/m 0,0 km/h (0 Bft) N 360 10,7 C 0,0 C 0,0 km/h (0 Bft)
03.09.2014 11:58 13,1 C 86 % 1020,6 hPa 0,0 l/m 0,0 km/h (0 Bft) N 360 10,8 C 0,0 C 0,0 km/h (0 Bft)
03.09.2014 12:03 13,0 C 86 % 1020,6 hPa 0,0 l/m 0,0 km/h (0 Bft) N 360 10,7 C 0,0 C 0,0 km/h (0 Bft)
03.09.2014 12:08 12,7 C 86 % 1020,3 hPa 0,0 l/m 0,0 km/h (0 Bft) N 360 10,4 C 0,0 C 0,0 km/h (0 Bft)
03.09.2014 12:13 13,2 C 87 % 1020,3 hPa 0,0 l/m 0,0 km/h (0 Bft) N 360 11,1 C 0,0 C 0,0 km/h (0 Bft)
03.09.2014 12:18 13,9 C 87 % 1020,3 hPa 0,0 l/m 0,0 km/h (0 Bft) N 360 11,8 C 0,0 C 0,0 km/h (0 Bft)
03.09.2014 12:23 14,2 C 84 % 1020,3 hPa 0,0 l/m 0,0 km/h (0 Bft) N 360 11,5 C 0,0 C 0,0 km/h (0 Bft)
03.09.2014 12:28 14,0 C 84 % 1020,2 hPa 0,0 l/m 0,0 km/h (0 Bft) N 360 11,3 C 0,0 C 0,0 km/h (0 Bft)
03.09.2014 12:33 14,3 C 83 % 1020,2 hPa 0,0 l/m 0,0 km/h (0 Bft) N 360 11,5 C 0,0 C 0,0 km/h (0 Bft)
03.09.2014 12:38 14,3 C 82 % 1020,2 hPa 0,0 l/m 0,0 km/h (0 Bft) N 360 11,3 C 0,0 C 0,0 km/h (0 Bft)
03.09.2014 12:43 14,4 C 82 % 1020,2 hPa 0,0 l/m 0,0 km/h (0 Bft) N 360 11,4 C 0,0 C 0,0 km/h (0 Bft)
03.09.2014 12:54 14,2 C 83 % 1020,1 hPa 0,0 l/m 0,0 km/h (0 Bft) N 360 11,4 C 0,0 C 0,0 km/h (0 Bft)
03.09.2014 12:55 14,2 C 83 % 1020,1 hPa 0,0 l/m 0,0 km/h (0 Bft) N 360 11,4 C 0,0 C 0,0 km/h (0 Bft)
03.09.2014 13:00 14,2 C 84 % 1020,1 hPa 0,0 l/m 0,0 km/h (0 Bft) N 360 11,5 C 0,0 C 0,0 km/h (0 Bft)
03.09.2014 13:05 14,0 C 84 % 1020,1 hPa 0,0 l/m 0,0 km/h (0 Bft) N 360 11,3 C 0,0 C 0,0 km/h (0 Bft)
03.09.2014 13:10 14,0 C 86 % 1020,1 hPa 0,0 l/m 0,0 km/h (0 Bft) N 360 11,7 C 0,0 C 0,0 km/h (0 Bft)
03.09.2014 13:15 13,9 C 85 % 1020,1 hPa 0,0 l/m 0,0 km/h (0 Bft) N 360 11,4 C 0,0 C 0,0 km/h (0 Bft)
03.09.2014 13:20 14,2 C 87 % 1020,1 hPa 0,0 l/m 0,0 km/h (0 Bft) N 360 12,1 C 0,0 C 0,0 km/h (0 Bft)
03.09.2014 13:25 14,2 C 86 % 1020,1 hPa 0,0 l/m 0,0 km/h (0 Bft) N 360 11,9 C 0,0 C 0,0 km/h (0 Bft)
03.09.2014 13:30 14,2 C 87 % 1020,1 hPa 0,0 l/m 0,0 km/h (0 Bft) N 360 12,1 C 0,0 C 0,0 km/h (0 Bft)
03.09.2014 13:35 14,0 C 85 % 1020,1 hPa 0,0 l/m 0,0 km/h (0 Bft) N 360 11,5 C 0,0 C 0,0 km/h (0 Bft)
03.09.2014 13:40 14,5 C 86 % 1020,1 hPa 0,0 l/m 0,0 km/h (0 Bft) N 360 12,2 C 0,0 C 0,0 km/h (0 Bft)
03.09.2014 13:45 14,5 C 86 % 1020,1 hPa 0,0 l/m 0,0 km/h (0 Bft) N 360 12,2 C 0,0 C 0,0 km/h (0 Bft)
03.09.2014 13:50 14,6 C 86 % 1019,9 hPa 0,0 l/m 0,0 km/h (0 Bft) N 360 12,3 C 0,0 C 0,0 km/h (0 Bft)
03.09.2014 13:55 14,4 C 84 % 1019,9 hPa 0,0 l/m 0,0 km/h (0 Bft) N 360 11,7 C 0,0 C 0,0 km/h (0 Bft)
03.09.2014 14:00 14,3 C 85 % 1019,9 hPa 0,0 l/m 0,0 km/h (0 Bft) N 360 11,8 C 0,0 C 0,0 km/h (0 Bft)
03.09.2014 14:05 14,3 C 85 % 1019,9 hPa 0,0 l/m 0,0 km/h (0 Bft) N 360 11,8 C 0,0 C 0,0 km/h (0 Bft)
03.09.2014 14:10 14,2 C 84 % 1019,8 hPa 0,0 l/m 0,0 km/h (0 Bft) N 360 11,5 C 0,0 C 0,0 km/h (0 Bft)
03.09.2014 14:15 14,1 C 84 % 1019,8 hPa 0,0 l/m 0,0 km/h (0 Bft) N 360 11,4 C 0,0 C 0,0 km/h (0 Bft)
03.09.2014 14:20 14,1 C 83 % 1019,8 hPa 0,0 l/m 0,0 km/h (0 Bft) N 360 11,3 C 0,0 C 0,0 km/h (0 Bft)
03.09.2014 14:25 14,3 C 84 % 1019,8 hPa 0,0 l/m 0,0 km/h (0 Bft) N 360 11,6 C 0,0 C 0,0 km/h (0 Bft)
03.09.2014 14:30 14,2 C 84 % 1019,6 hPa 0,0 l/m 0,0 km/h (0 Bft) N 360 11,5 C 0,0 C 0,0 km/h (0 Bft)
03.09.2014 14:35 14,2 C 84 % 1019,6 hPa 0,0 l/m 0,0 km/h (0 Bft) N 360 11,5 C 0,0 C 0,0 km/h (0 Bft)
03.09.2014 14:40 14,3 C 85 % 1019,6 hPa 0,0 l/m 0,0 km/h (0 Bft) N 360 11,8 C 0,0 C 0,0 km/h (0 Bft)
03.09.2014 14:43 14,4 C 85 % 1019,6 hPa 0,0 l/m 0,0 km/h (0 Bft) N 360 11,9 C 0,0 C 0,0 km/h (0 Bft)
03.09.2014 14:48 14,6 C 85 % 1019,6 hPa 0,0 l/m 0,0 km/h (0 Bft) N 360 12,1 C 0,0 C 0,0 km/h (0 Bft)
03.09.2014 14:53 14,7 C 83 % 1019,6 hPa 0,0 l/m 0,0 km/h (0 Bft) N 360 11,8 C 0,0 C 0,0 km/h (0 Bft)
03.09.2014 14:58 15,0 C 81 % 1019,6 hPa 0,0 l/m 0,0 km/h (0 Bft) N 360 11,8 C 0,0 C 0,0 km/h (0 Bft)
03.09.2014 15:03 14,8 C 81 % 1019,6 hPa 0,0 l/m 0,0 km/h (0 Bft) N 360 11,6 C 0,0 C 0,0 km/h (0 Bft)
03.09.2014 15:08 14,9 C 81 % 1019,7 hPa 0,0 l/m 0,0 km/h (0 Bft) N 360 11,7 C 0,0 C 0,0 km/h (0 Bft)
03.09.2014 15:13 14,6 C 80 % 1019,7 hPa 0,0 l/m 0,0 km/h (0 Bft) N 360 11,2 C 0,0 C 0,0 km/h (0 Bft)
03.09.2014 15:18 14,7 C 81 % 1019,7 hPa 0,0 l/m 0,0 km/h (0 Bft) N 360 11,5 C 0,0 C 0,0 km/h (0 Bft)
03.09.2014 15:23 14,6 C 80 % 1019,7 hPa 0,0 l/m 0,0 km/h (0 Bft) N 360 11,2 C 0,0 C 0,0 km/h (0 Bft)
03.09.2014 15:28 14,7 C 81 % 1019,5 hPa 0,0 l/m 0,0 km/h (0 Bft) N 360 11,5 C 0,0 C 0,0 km/h (0 Bft)
03.09.2014 15:33 14,6 C 80 % 1019,5 hPa 0,0 l/m 0,0 km/h (0 Bft) N 360 11,2 C 0,0 C 0,0 km/h (0 Bft)
03.09.2014 15:38 14,5 C 81 % 1019,5 hPa 0,0 l/m 0,0 km/h (0 Bft) N 360 11,3 C 0,0 C 0,0 km/h (0 Bft)
03.09.2014 15:43 14,6 C 81 % 1019,5 hPa 0,0 l/m 0,0 km/h (0 Bft) N 360 11,4 C 0,0 C 0,0 km/h (0 Bft)
03.09.2014 15:48 14,6 C 80 % 1019,4 hPa 0,0 l/m 0,0 km/h (0 Bft) N 360 11,2 C 0,0 C 0,0 km/h (0 Bft)
03.09.2014 15:53 14,7 C 80 % 1019,4 hPa 0,0 l/m 0,0 km/h (0 Bft) N 360 11,3 C 0,0 C 0,0 km/h (0 Bft)
03.09.2014 15:58 14,9 C 80 % 1019,4 hPa 0,0 l/m 0,0 km/h (0 Bft) N 360 11,5 C 0,0 C 0,0 km/h (0 Bft)
03.09.2014 16:03 15,1 C 80 % 1019,4 hPa 0,0 l/m 0,0 km/h (0 Bft) N 360 11,7 C 0,0 C 0,0 km/h (0 Bft)
03.09.2014 16:08 15,2 C 79 % 1019,3 hPa 0,0 l/m 0,0 km/h (0 Bft) N 360 11,6 C 0,0 C 0,0 km/h (0 Bft)
03.09.2014 16:13 15,2 C 77 % 1019,3 hPa 0,0 l/m 0,0 km/h (0 Bft) N 360 11,2 C 0,0 C 0,0 km/h (0 Bft)
03.09.2014 16:18 15,1 C 78 % 1019,3 hPa 0,0 l/m 0,0 km/h (0 Bft) N 360 11,3 C 0,0 C 0,0 km/h (0 Bft)
03.09.2014 16:23 15,0 C 78 % 1019,3 hPa 0,0 l/m 0,0 km/h (0 Bft) N 360 11,2 C 0,0 C 0,0 km/h (0 Bft)
03.09.2014 16:28 15,0 C 78 % 1019,2 hPa 0,0 l/m 0,0 km/h (0 Bft) N 360 11,2 C 0,0 C 0,0 km/h (0 Bft)
03.09.2014 16:33 15,0 C 78 % 1019,2 hPa 0,0 l/m 0,0 km/h (0 Bft) N 360 11,2 C 0,0 C 0,0 km/h (0 Bft)
03.09.2014 16:38 14,8 C 78 % 1019,2 hPa 0,0 l/m 0,0 km/h (0 Bft) N 360 11,0 C 0,0 C 0,0 km/h (0 Bft)
03.09.2014 16:43 14,9 C 79 % 1019,2 hPa 0,0 l/m 0,0 km/h (0 Bft) N 360 11,3 C 0,0 C 0,0 km/h (0 Bft)
03.09.2014 16:49 14,9 C 79 % 1019,2 hPa 0,0 l/m 0,0 km/h (0 Bft) N 360 11,3 C 0,0 C 0,0 km/h (0 Bft)
03.09.2014 16:50 15,1 C 78 % 1019,2 hPa 0,0 l/m 0,0 km/h (0 Bft) N 360 11,3 C 0,0 C 0,0 km/h (0 Bft)
03.09.2014 16:55 15,0 C 78 % 1019,2 hPa 0,0 l/m 0,0 km/h (0 Bft) N 360 11,2 C 0,0 C 0,0 km/h (0 Bft)
03.09.2014 17:00 14,7 C 79 % 1019,2 hPa 0,0 l/m 0,0 km/h (0 Bft) N 360 11,1 C 0,0 C 0,0 km/h (0 Bft)
03.09.2014 17:05 14,7 C 79 % 1019,2 hPa 0,0 l/m 0,0 km/h (0 Bft) N 360 11,1 C 0,0 C 0,0 km/h (0 Bft)
03.09.2014 17:10 14,7 C 79 % 1019,2 hPa 0,0 l/m 0,0 km/h (0 Bft) O-NO 67 11,1 C 0,0 C 0,0 km/h (0 Bft)
03.09.2014 17:15 14,4 C 79 % 1019,1 hPa 0,0 l/m 2,7 km/h (1 Bft) O-NO 67 10,8 C 14,9 C 4,7 km/h (1 Bft)
03.09.2014 17:20 14,3 C 80 % 1019,1 hPa 0,0 l/m 4,5 km/h (1 Bft) O-NO 67 10,9 C 14,8 C 5,1 km/h (1 Bft)
03.09.2014 17:25 14,3 C 81 % 1019,1 hPa 0,0 l/m 4,3 km/h (1 Bft) NO 45 11,1 C 14,6 C 10,6 km/h (2 Bft)
03.09.2014 17:30 14,2 C 81 % 1019,1 hPa 0,0 l/m 4,5 km/h (1 Bft) NO 45 11,0 C 14,5 C 4,3 km/h (1 Bft)
03.09.2014 17:35 14,2 C 81 % 1019,4 hPa 0,0 l/m 4,5 km/h (1 Bft) O 90 11,0 C 14,3 C 6,1 km/h (2 Bft)
03.09.2014 17:40 14,2 C 81 % 1019,4 hPa 0,0 l/m 3,5 km/h (1 Bft) N-NO 22 11,0 C 14,4 C 3,1 km/h (1 Bft)
03.09.2014 17:43 14,2 C 82 % 1019,4 hPa 0,0 l/m 3,5 km/h (1 Bft) O-SO 112 11,2 C 14,4 C 5,6 km/h (1 Bft)
03.09.2014 17:45 14,2 C 82 % 1019,4 hPa 0,0 l/m 3,5 km/h (1 Bft) O-SO 112 11,2 C 14,4 C 5,6 km/h (1 Bft)
03.09.2014 17:50 14,1 C 82 % 1019,4 hPa 0,0 l/m 3,7 km/h (1 Bft) N 360 11,1 C 14,3 C 9,3 km/h (2 Bft)
03.09.2014 17:55 14,1 C 82 % 1019,1 hPa 0,0 l/m 4,2 km/h (1 Bft) NO 45 11,1 C 14,3 C 4,2 km/h (1 Bft)
03.09.2014 18:00 14,1 C 82 % 1019,1 hPa 0,0 l/m 4,2 km/h (1 Bft) N-NO 22 11,1 C 14,3 C 7,4 km/h (2 Bft)
03.09.2014 18:05 14,0 C 82 % 1019,1 hPa 0,0 l/m 3,2 km/h (1 Bft) N-NO 22 11,0 C 14,3 C 0,0 km/h (0 Bft)
03.09.2014 18:10 14,0 C 82 % 1019,1 hPa 0,0 l/m 3,4 km/h (1 Bft) NO 45 11,0 C 14,2 C 4,8 km/h (1 Bft)
03.09.2014 18:15 13,8 C 83 % 1019,0 hPa 0,0 l/m 2,9 km/h (1 Bft) O-SO 112 11,0 C 14,1 C 1,6 km/h (1 Bft)
03.09.2014 18:20 13,8 C 83 % 1019,0 hPa 0,0 l/m 2,7 km/h (1 Bft) NO 45 11,0 C 13,9 C 3,7 km/h (1 Bft)
03.09.2014 18:25 13,7 C 84 % 1019,0 hPa 0,0 l/m 2,3 km/h (1 Bft) O-NO 67 11,0 C 13,8 C 0,0 km/h (0 Bft)
03.09.2014 18:30 13,6 C 84 % 1019,0 hPa 0,0 l/m 2,3 km/h (1 Bft) O-NO 67 10,9 C 13,8 C 3,4 km/h (1 Bft)
03.09.2014 18:35 13,6 C 84 % 1019,1 hPa 0,0 l/m 2,3 km/h (1 Bft) SO 135 10,9 C 13,7 C 5,5 km/h (1 Bft)
03.09.2014 18:40 13,6 C 85 % 1019,1 hPa 0,0 l/m 2,9 km/h (1 Bft) O-SO 112 11,1 C 13,7 C 4,3 km/h (1 Bft)
03.09.2014 18:45 13,6 C 85 % 1019,1 hPa 0,0 l/m 3,1 km/h (1 Bft) O-NO 67 11,1 C 13,6 C 1,6 km/h (1 Bft)
03.09.2014 18:50 13,6 C 85 % 1019,1 hPa 0,0 l/m 2,1 km/h (1 Bft) O-NO 67 11,1 C 13,6 C 3,4 km/h (1 Bft)
03.09.2014 18:55 13,5 C 85 % 1018,9 hPa 0,0 l/m 1,6 km/h (1 Bft) O-NO 67 11,0 C 13,6 C 2,3 km/h (1 Bft)
03.09.2014 19:00 13,4 C 85 % 1018,9 hPa 0,0 l/m 2,1 km/h (1 Bft) O-NO 67 10,9 C 13,5 C 1,6 km/h (1 Bft)
03.09.2014 19:05 13,4 C 85 % 1018,9 hPa 0,0 l/m 1,9 km/h (1 Bft) O-NO 67 10,9 C 13,4 C 0,0 km/h (0 Bft)
03.09.2014 19:10 13,3 C 85 % 1018,9 hPa 0,0 l/m 1,1 km/h (1 Bft) S-SO 157 10,8 C 13,4 C 0,0 km/h (0 Bft)
03.09.2014 19:15 13,2 C 86 % 1018,8 hPa 0,0 l/m 0,5 km/h (0 Bft) SO 135 10,9 C 13,3 C 1,9 km/h (1 Bft)
03.09.2014 19:20 13,2 C 86 % 1018,8 hPa 0,0 l/m 0,3 km/h (0 Bft) SO 135 10,9 C 13,2 C 0,0 km/h (0 Bft)
03.09.2014 19:25 13,2 C 86 % 1018,8 hPa 0,0 l/m 0,3 km/h (0 Bft) SO 135 10,9 C 13,3 C 2,3 km/h (1 Bft)
03.09.2014 19:30 13,1 C 86 % 1018,8 hPa 0,0 l/m 0,5 km/h (0 Bft) O-SO 112 10,8 C 13,2 C 0,0 km/h (0 Bft)
03.09.2014 19:35 13,1 C 86 % 1018,5 hPa 0,0 l/m 0,8 km/h (0 Bft) O-NO 67 10,8 C 13,2 C 3,9 km/h (1 Bft)
03.09.2014 19:40 13,1 C 86 % 1018,5 hPa 0,0 l/m 1,4 km/h (1 Bft) O 90 10,8 C 13,1 C 3,1 km/h (1 Bft)
03.09.2014 19:45 13,1 C 87 % 1018,5 hPa 0,0 l/m 1,9 km/h (1 Bft) O-NO 67 11,0 C 13,1 C 0,0 km/h (0 Bft)
03.09.2014 19:50 13,1 C 87 % 1018,5 hPa 0,0 l/m 1,3 km/h (1 Bft) O-SO 112 11,0 C 13,1 C 2,3 km/h (1 Bft)
03.09.2014 19:55 13,1 C 87 % 1018,8 hPa 0,0 l/m 0,5 km/h (0 Bft) S-SW 202 11,0 C 13,0 C 1,6 km/h (1 Bft)
03.09.2014 20:00 13,1 C 87 % 1018,8 hPa 0,0 l/m 0,6 km/h (0 Bft) NO 45 11,0 C 13,0 C 1,6 km/h (1 Bft)
03.09.2014 20:05 13,1 C 87 % 1018,8 hPa 0,0 l/m 0,8 km/h (0 Bft) NO 45 11,0 C 13,0 C 1,8 km/h (1 Bft)
03.09.2014 20:10 13,0 C 87 % 1018,8 hPa 0,0 l/m 1,0 km/h (0 Bft) O-NO 67 10,9 C 13,0 C 3,1 km/h (1 Bft)
03.09.2014 20:15 13,0 C 87 % 1018,7 hPa 0,0 l/m 1,1 km/h (1 Bft) SW 225 10,9 C 13,0 C 1,8 km/h (1 Bft)
03.09.2014 20:20 13,0 C 88 % 1018,7 hPa 0,0 l/m 1,0 km/h (0 Bft) SO 135 11,1 C 13,0 C 0,0 km/h (0 Bft)
03.09.2014 20:25 13,0 C 88 % 1018,7 hPa 0,0 l/m 1,0 km/h (0 Bft) SO 135 11,1 C 13,0 C 1,8 km/h (1 Bft)
03.09.2014 20:30 13,0 C 88 % 1018,7 hPa 0,0 l/m 1,1 km/h (1 Bft) O-NO 67 11,1 C 12,9 C 4,7 km/h (1 Bft)
03.09.2014 20:35 13,0 C 88 % 1018,9 hPa 0,0 l/m 1,6 km/h (1 Bft) O-SO 112 11,1 C 12,9 C 0,0 km/h (0 Bft)
03.09.2014 20:40 13,0 C 88 % 1018,9 hPa 0,0 l/m 1,8 km/h (1 Bft) O 90 11,1 C 12,9 C 1,9 km/h (1 Bft)
03.09.2014 20:45 13,0 C 88 % 1018,9 hPa 0,0 l/m 1,1 km/h (1 Bft) O-NO 67 11,1 C 12,9 C 2,9 km/h (1 Bft)
03.09.2014 20:50 13,0 C 88 % 1018,9 hPa 0,0 l/m 1,4 km/h (1 Bft) NO 45 11,1 C 12,9 C 2,6 km/h (1 Bft)
03.09.2014 20:55 13,0 C 88 % 1018,9 hPa 0,0 l/m 1,9 km/h (1 Bft) O-NO 67 11,1 C 12,9 C 0,0 km/h (0 Bft)
03.09.2014 21:00 13,0 C 89 % 1018,9 hPa 0,0 l/m 2,9 km/h (1 Bft) NO 45 11,2 C 12,9 C 1,9 km/h (1 Bft)
03.09.2014 21:05 13,0 C 89 % 1018,9 hPa 0,0 l/m 2,6 km/h (1 Bft) O-NO 67 11,2 C 12,9 C 0,0 km/h (0 Bft)
03.09.2014 21:10 13,0 C 89 % 1018,9 hPa 0,0 l/m 1,8 km/h (1 Bft) O-NO 67 11,2 C 12,9 C 0,0 km/h (0 Bft)
03.09.2014 21:15 13,0 C 89 % 1018,9 hPa 0,0 l/m 2,1 km/h (1 Bft) O-NO 67 11,2 C 12,9 C 2,7 km/h (1 Bft)
03.09.2014 21:20 13,0 C 89 % 1018,9 hPa 0,0 l/m 2,3 km/h (1 Bft) SO 135 11,2 C 12,9 C 4,0 km/h (1 Bft)
03.09.2014 21:25 13,0 C 89 % 1018,9 hPa 0,0 l/m 2,9 km/h (1 Bft) O-NO 67 11,2 C 12,9 C 5,5 km/h (1 Bft)
03.09.2014 21:30 13,0 C 89 % 1018,9 hPa 0,0 l/m 3,4 km/h (1 Bft) SO 135 11,2 C 12,9 C 1,8 km/h (1 Bft)
03.09.2014 21:35 12,9 C 89 % 1019,2 hPa 0,0 l/m 3,7 km/h (1 Bft) O-NO 67 11,1 C 12,8 C 4,7 km/h (1 Bft)
03.09.2014 21:40 12,9 C 89 % 1019,2 hPa 0,0 l/m 4,0 km/h (1 Bft) O-SO 112 11,1 C 12,8 C 4,7 km/h (1 Bft)
03.09.2014 21:45 12,9 C 89 % 1019,2 hPa 0,0 l/m 3,9 km/h (1 Bft) O-NO 67 11,1 C 12,8 C 3,9 km/h (1 Bft)
03.09.2014 21:50 12,9 C 89 % 1019,2 hPa 0,0 l/m 3,4 km/h (1 Bft) O-NO 67 11,1 C 12,8 C 5,5 km/h (1 Bft)
03.09.2014 21:55 12,8 C 90 % 1019,1 hPa 0,0 l/m 3,5 km/h (1 Bft) O-NO 67 11,2 C 12,8 C 3,9 km/h (1 Bft)
03.09.2014 22:00 12,8 C 90 % 1019,1 hPa 0,0 l/m 3,1 km/h (1 Bft) N-NO 22 11,2 C 12,8 C 5,3 km/h (1 Bft)
03.09.2014 22:05 12,8 C 90 % 1019,1 hPa 0,0 l/m 2,6 km/h (1 Bft) NO 45 11,2 C 12,7 C 6,8 km/h (2 Bft)
03.09.2014 22:10 12,8 C 90 % 1019,1 hPa 0,0 l/m 2,7 km/h (1 Bft) NO 45 11,2 C 12,7 C 2,9 km/h (1 Bft)
03.09.2014 22:15 12,7 C 90 % 1019,2 hPa 0,0 l/m 3,4 km/h (1 Bft) O-NO 67 11,1 C 12,6 C 2,7 km/h (1 Bft)
03.09.2014 22:20 12,7 C 90 % 1019,2 hPa 0,0 l/m 3,7 km/h (1 Bft) N-NW 337 11,1 C 12,6 C 5,8 km/h (2 Bft)
03.09.2014 22:25 12,7 C 91 % 1019,2 hPa 0,0 l/m 3,4 km/h (1 Bft) NO 45 11,3 C 12,6 C 2,9 km/h (1 Bft)
03.09.2014 22:30 12,7 C 91 % 1019,2 hPa 0,0 l/m 3,7 km/h (1 Bft) O-SO 112 11,3 C 12,5 C 4,2 km/h (1 Bft)
03.09.2014 22:35 12,6 C 91 % 1019,2 hPa 0,0 l/m 4,0 km/h (1 Bft) NO 45 11,2 C 12,5 C 5,0 km/h (1 Bft)
03.09.2014 22:40 12,6 C 91 % 1019,2 hPa 0,0 l/m 4,0 km/h (1 Bft) O-NO 67 11,2 C 12,5 C 6,0 km/h (2 Bft)
03.09.2014 22:43 12,6 C 91 % 1019,2 hPa 0,0 l/m 3,9 km/h (1 Bft) NO 45 11,2 C 12,5 C 7,7 km/h (2 Bft)
03.09.2014 22:45 12,6 C 91 % 1019,2 hPa 0,0 l/m 3,9 km/h (1 Bft) NO 45 11,2 C 12,5 C 7,7 km/h (2 Bft)
03.09.2014 22:50 12,6 C 91 % 1019,2 hPa 0,0 l/m 3,7 km/h (1 Bft) O-NO 67 11,2 C 12,5 C 3,7 km/h (1 Bft)
03.09.2014 22:55 12,6 C 91 % 1019,1 hPa 0,0 l/m 4,2 km/h (1 Bft) O-SO 112 11,2 C 12,5 C 3,4 km/h (1 Bft)
03.09.2014 23:00 12,6 C 91 % 1019,1 hPa 0,0 l/m 3,7 km/h (1 Bft) NO 45 11,2 C 12,4 C 7,2 km/h (2 Bft)
03.09.2014 23:05 12,5 C 91 % 1019,1 hPa 0,0 l/m 3,5 km/h (1 Bft) O-SO 112 11,1 C 12,4 C 3,2 km/h (1 Bft)
03.09.2014 23:10 12,5 C 91 % 1019,1 hPa 0,0 l/m 3,7 km/h (1 Bft) O 90 11,1 C 12,4 C 6,4 km/h (2 Bft)
03.09.2014 23:15 12,5 C 91 % 1019,1 hPa 0,0 l/m 3,7 km/h (1 Bft) N 360 11,1 C 12,4 C 2,3 km/h (1 Bft)
03.09.2014 23:20 12,5 C 91 % 1019,1 hPa 0,0 l/m 3,7 km/h (1 Bft) N-NW 337 11,1 C 12,4 C 4,7 km/h (1 Bft)
03.09.2014 23:25 12,5 C 91 % 1019,1 hPa 0,0 l/m 4,0 km/h (1 Bft) O-NO 67 11,1 C 12,4 C 4,8 km/h (1 Bft)
03.09.2014 23:30 12,5 C 91 % 1019,1 hPa 0,0 l/m 4,2 km/h (1 Bft) O-NO 67 11,1 C 12,4 C 6,1 km/h (2 Bft)
03.09.2014 23:35 12,5 C 92 % 1019,3 hPa 0,0 l/m 3,9 km/h (1 Bft) O-NO 67 11,2 C 12,3 C 4,3 km/h (1 Bft)
03.09.2014 23:40 12,5 C 91 % 1019,3 hPa 0,0 l/m 3,1 km/h (1 Bft) O-NO 67 11,1 C 12,3 C 4,8 km/h (1 Bft)
03.09.2014 23:45 12,5 C 92 % 1019,3 hPa 0,0 l/m 2,3 km/h (1 Bft) O-SO 112 11,2 C 12,3 C 3,9 km/h (1 Bft)
03.09.2014 23:50 12,5 C 92 % 1019,3 hPa 0,0 l/m 2,4 km/h (1 Bft) O-SO 112 11,2 C 12,3 C 2,6 km/h (1 Bft)
03.09.2014 23:55 12,5 C 92 % 1019,1 hPa 0,0 l/m 2,1 km/h (1 Bft) O-NO 67 11,2 C 12,3 C 2,9 km/h (1 Bft)
_ Min-Zeit 06:38 16:13 19:50 - 17:10 - - 06:38 17:10 21:10
Minimum _ 9,0 C 77 % 1018,5 hPa - 0,0 km/h (0 Bft) - - 8,4 C 0,0 C 0,0 km/h (0 Bft)
_ Max-Zeit 16:13 08:43 00:03 23:55 17:35 - - 13:50 17:15 17:25
Maximum _ 15,2 C 96 % 1022,6 hPa 0,0 l/m 4,5 km/h
O (1 Bft)
- - 12,3 C 14,9 C 10,6 km/h
NO (2 Bft)
Durchschnitt _ 12,0 C 90 % 1020,2 hPa #0,0 l/m 0,7 km/h (0 Bft) O-NO - 10,3 C 3,7 C 1,0 km/h (0 Bft)